CYGNUS NG-23

Last updated on Sun Dec 14 2025 00:02:12 GMT+0000 (Coordinated Universal Time)

1 65616U 25208A 25347.12152100 .00016130 00000+0 29450-3 0 9997 2 65616 51.6303 140.5889 0003238 241.9684 118.0978 15.49559837 223
UTC large
Height (km)
Speed (km/s)
/
Latitude / Longitude
Inclination (degrees)
Orbital Period (minutes)
Azimuth
Elevation
Range (km)
Doppler Factor

Next 0 passes for location: London (51.5072 / 0.1276)

Sorry there are no passes over London.